515  
ASUS43 KFSD 200210  
RWRFSD  
 
WEATHER ROUNDUP FOR SE SOUTH DAKOTA/SW MINNESOTA/NW IOWA  
NATIONAL WEATHER SERVICE SIOUX FALLS SD  
900 PM CDT FRI OCT 19 2018  
 
NOTE: "FAIR" INDICATES FEW OR NO CLOUDS BELOW 12,000 FEET WITH NO  
SIGNIFICANT WEATHER AND OR S TO VISIBILITY
.  
 
 
SDZ038>040-050-052>070-200300-  
SOUTHEAST SOUTH DAKOTA  
 
CITY SKY/WX TMP DP RH WIND PRES REMARKS
 
BROOKINGS CLEAR 45 32 60 NW9 30.08R  
CHAMBERLAIN CLEAR 49 32 51 W8 30.17S  
HURON CLEAR 41 29 62 W7 30.12R  
MADISON FAIR 46 32 57 NW10 30.10R  
MITCHELL CLEAR 47 30 51 NW8 30.13R  
SIOUX FALLS CLEAR 49 32 52 NW7 30.08S  
WINNER FAIR 46 28 49 SW8 30.21R  
YANKTON CLEAR 52 31 44 W12 30.14R  

 
 
MNZ071-072-080-081-089-090-097-098-200300-  
SOUTHWEST MINNESOTA  
 
CITY SKY/WX TMP DP RH WIND PRES REMARKS
 
FAIRMONT CLEAR 51 32 48 NW15 30.00R  
JACKSON CLEAR 50 32 50 NW13G22 30.03R  
LUVERNE CLEAR 45 30 57 NW6 30.08R  
MARSHALL CLEAR 48 33 56 NW13 30.03R  
MONTEVIDEO CLEAR 48 30 49 NW7 30.01S  
PIPESTONE CLEAR 50 34 53 NW10 30.06S  
REDWOOD FALLS CLEAR 49 33 54 W12 29.99R  
TRACY CLEAR 51 33 49 NW10 30.02S  
WORTHINGTON CLEAR 48 32 53 NW13 30.05R  

 
 
IAZ001>003-012>014-020>022-031-032-NEZ013-014-SDZ071-200300-  
NORTHWEST IOWA  
 
CITY SKY/WX TMP DP RH WIND PRES REMARKS
 
CHEROKEE CLEAR 51 33 50 NW8 30.08R  
DENISON CLEAR 52 36 54 W8 30.09R  
ESTHERVILLE CLEAR 50 32 50 NW12 30.02R  
ORANGE CITY CLEAR 48 34 57 NW5 30.09R  
SHELDON N/A 50 32 50 NW10 30.05S  
SIOUX CITY CLEAR 53 34 48 NW9 30.10R  
SPENCER CLEAR 49 34 56 W10 30.05R  
STORM LAKE CLEAR 50 34 53 NW14 30.06R  

 
 
ABBREVIATIONS USED IN REMARKS  
TC - TEMPERATURE IN CELSIUS  
WCI - WIND CHILL INDEX  
HX - HEAT INDEX  
VSB - VISIBILITY  
 
 
 
CLICK HERE TO GO TO PREVIOUS BULLETINS.

The Nexlab SD Page
The Nexlab IA Page
The Nexlab MN Page
The Nexlab NE Page Main Text Page